Weather History for London-Corbin, KY

Change the Weather History Date:

Monday, May 13, 2013

  Actual Average Record
Temperature  
Mean Temperature 49 °F 64 °F  
Max Temperature 63 °F 76 °F 89 °F (1956)
Min Temperature 34 °F 52 °F 34 °F (2013)
Degree Days  
Heating Degree Days 16 3  
Month to date heating degree days 77 55  
Since 1 July heating degree days 4506 4156  
Cooling Degree Days 0 2  
Month to date cooling degree days 1 21  
Year to date cooling degree days 21 47  
Moisture  
Dew Point 33 °F    
Average Humidity 61    
Maximum Humidity 92    
Minimum Humidity 29    
Precipitation  
Precipitation 0.00 in 0.18 in 1.68 in (1983)
Month to date precipitation 3.12 2.14  
Year to date precipitation 21.59 17.49  
Snow  
Snow 0.00 in - - ()
Month to date snowfall 0.0  
Snow Depth 0.00 in    
Sea Level Pressure  
Sea Level Pressure 30.18 in    
Wind  
Wind Speed 5 mph (WNW)    
Max Wind Speed 18 mph    
Max Gust Speed 23 mph    
Visibility 10 miles    
Events      
T = Trace of Precipitation, MM = Missing Value Source: NWS Daily Summary

Daily Weather History Graph

Daily Weather History Graph

Search for Another Location

Airport:

Trip Planner

Search our weather history database for the weather conditions in past years. The results will help you decide how hot, cold, wet, or windy it might be!

Date:

Astronomy

May. 13, 2013 Rise Set
Actual Time 6:29 AM EDT 8:36 PM EDT
Civil Twilight 6:00 AM EDT 9:05 PM EDT
Nautical Twilight 5:25 AM EDT 9:40 PM EDT
Astronomical Twilight 4:47 AM EDT 10:19 PM EDT
Moon 9:15 AM EDT (5/13) 11:44 PM EDT (5/13)
Length of Visible Light 15h 04m
Length of Day
14h 06m
Waxing Crescent, 12% of the Moon is Illuminated
May 13
Waxing Crescent
May 18
First Quarter
May 25
Full
May 31
Last Quarter
Jun 8
New

Hourly Weather History & Observations

Time (EDT) Temp. Dew Point Humidity Pressure Visibility Wind Dir Wind Speed Gust Speed Precip Events Conditions
12:53 AM 45.0 °F 32.0 °F 60% 30.16 in 10.0 mi Calm Calm - N/A   Clear
1:53 AM 39.9 °F 35.1 °F 83% 30.16 in 10.0 mi Calm Calm - N/A   Clear
2:53 AM 39.0 °F 34.0 °F 82% 30.15 in 10.0 mi Calm Calm - N/A   Clear
3:53 AM 37.0 °F 35.1 °F 93% 30.14 in 10.0 mi Calm Calm - N/A   Clear
4:53 AM 37.0 °F 34.0 °F 89% 30.16 in 10.0 mi Calm Calm - N/A   Clear
5:53 AM 35.1 °F 33.1 °F 92% 30.17 in 10.0 mi Calm Calm - N/A   Clear
6:53 AM 35.1 °F 34.0 °F 96% 30.19 in 10.0 mi Calm Calm - N/A   Clear
7:53 AM 39.0 °F 37.0 °F 93% 30.20 in 10.0 mi Calm Calm - N/A   Clear
8:53 AM 46.0 °F 37.9 °F 73% 30.22 in 10.0 mi Calm Calm - N/A   Clear
9:53 AM 52.0 °F 33.1 °F 49% 30.23 in 10.0 mi West 8.1 mph - N/A   Clear
10:53 AM 55.0 °F 28.9 °F 37% 30.23 in 10.0 mi Variable 6.9 mph - N/A   Partly Cloudy
11:53 AM 55.9 °F 28.0 °F 34% 30.23 in 10.0 mi Variable 6.9 mph - N/A   Partly Cloudy
12:53 PM 57.9 °F 28.9 °F 33% 30.22 in 10.0 mi WNW 9.2 mph 18.4 mph N/A   Partly Cloudy
1:53 PM 60.1 °F 30.0 °F 32% 30.20 in 10.0 mi WNW 10.4 mph - N/A   Partly Cloudy
2:53 PM 61.0 °F 28.9 °F 30% 30.18 in 10.0 mi West 15.0 mph 20.7 mph N/A   Clear
4:53 PM 62.1 °F 30.0 °F 30% 30.16 in 10.0 mi WNW 12.7 mph 20.7 mph N/A   Scattered Clouds
5:53 PM 62.1 °F 30.9 °F 31% 30.16 in 10.0 mi West 16.1 mph 20.7 mph N/A   Partly Cloudy
6:53 PM 61.0 °F 30.9 °F 32% 30.15 in 10.0 mi NW 10.4 mph - N/A   Partly Cloudy
8:53 PM 57.0 °F 32.0 °F 39% 30.17 in 10.0 mi West 3.5 mph - N/A   Clear
9:53 PM 50.0 °F 37.0 °F 61% 30.19 in 10.0 mi Calm Calm - N/A   Clear
10:53 PM 46.9 °F 37.9 °F 71% 30.20 in 10.0 mi Calm Calm - N/A   Clear
11:53 PM 45.0 °F 39.0 °F 80% 30.19 in 10.0 mi Calm Calm - N/A   Clear